16-03-2022, 00:00:07,    137,    0.1,    7.2,   0.00,   0.00, 1015.5,   84.9, -999.0
16-03-2022, 00:00:17,    140,    0.0,    7.0,   0.00,   0.00, 1015.4,   84.7, -999.0
16-03-2022, 00:00:26,    169,    1.5,    7.0,   0.00,   0.00, 1015.6,   85.2, -999.0
16-03-2022, 00:00:36,    146,    2.2,    7.1,   0.00,   0.00, 1015.6,   85.2, -999.0
16-03-2022, 00:00:47,    150,    2.8,    7.0,   0.00,   0.00, 1015.6,   85.1, -999.0
16-03-2022, 00:00:56,    147,    2.7,    7.1,   0.00,   0.00, 1015.6,   85.0, -999.0
16-03-2022, 00:01:06,    147,    2.2,    7.1,   0.00,   0.00, 1015.6,   85.1, -999.0
16-03-2022, 00:01:16,    146,    1.9,    7.1,   0.00,   0.00, 1015.6,   85.1, -999.0
16-03-2022, 00:01:26,    147,    1.8,    7.0,   0.00,   0.00, 1015.6,   85.1, -999.0
16-03-2022, 00:01:36,    178,    2.5,    7.1,   0.00,   0.00, 1015.6,   85.1, -999.0
16-03-2022, 00:01:46,    132,    2.6,    7.1,   0.00,   0.00, 1015.6,   85.1, -999.0
16-03-2022, 00:01:56,    132,    1.2,    7.1,   0.00,   0.00, 1015.6,   85.2, -999.0
16-03-2022, 00:02:06,    153,    1.1,    7.1,   0.00,   0.00, 1015.6,   85.1, -999.0
16-03-2022, 00:02:16,    153,    0.3,    7.0,   0.00,   0.00, 1015.6,   85.2, -999.0
16-03-2022, 00:02:26,    184,    2.5,    7.1,   0.00,   0.00, 1015.6,   85.1, -999.0
16-03-2022, 00:02:36,    180,    1.0,    7.1,   0.00,   0.00, 1015.6,   85.1, -999.0
16-03-2022, 00:02:46,    180,    0.4,    7.1,   0.00,   0.00, 1015.6,   85.1, -999.0
16-03-2022, 00:02:56,    168,    0.8,    7.0,   0.00,   0.00, 1015.5,   85.1, -999.0
16-03-2022, 00:03:06,    166,    1.4,    7.1,   0.00,   0.00, 1015.6,   85.2, -999.0
16-03-2022, 00:03:16,    163,    0.8,    7.1,   0.00,   0.00, 1015.5,   85.1, -999.0
16-03-2022, 00:03:26,    161,    0.1,    7.1,   0.00,   0.00, 1015.5,   85.0, -999.0
16-03-2022, 00:03:35,    159,    0.5,    7.1,   0.00,   0.00, 1015.5,   85.1, -999.0
16-03-2022, 00:03:46,    158,    0.2,    7.1,   0.00,   0.00, 1015.5,   85.1, -999.0
16-03-2022, 00:03:55,    157,    0.0,    7.0,   0.00,   0.00, 1015.4,   84.9, -999.0
16-03-2022, 00:04:05,    158,    0.9,    7.1,   0.00,   0.00, 1015.6,   85.3, -999.0
16-03-2022, 00:04:15,    179,    1.3,    7.1,   0.00,   0.00, 1015.6,   85.2, -999.0
16-03-2022, 00:04:25,    166,    1.6,    7.2,   0.00,   0.00, 1015.6,   85.1, -999.0
16-03-2022, 00:04:35,    166,    0.8,    7.0,   0.00,   0.00, 1015.5,   84.8, -999.0
16-03-2022, 00:04:45,    166,    0.2,    7.0,   0.00,   0.00, 1015.5,   84.9, -999.0
16-03-2022, 00:04:55,    166,    0.0,    7.0,   0.00,   0.00, 1015.4,   84.6, -999.0
16-03-2022, 00:05:05,    163,    0.4,    7.0,   0.00,   0.00, 1015.5,   85.1, -999.0
16-03-2022, 00:05:15,    155,    0.8,    7.1,   0.00,   0.00, 1015.5,   85.1, -999.0
16-03-2022, 00:05:25,    155,    0.6,    7.1,   0.00,   0.00, 1015.6,   85.1, -999.0
16-03-2022, 00:05:35,    155,    0.0,    7.0,   0.00,   0.00, 1015.4,   84.8, -999.0
16-03-2022, 00:05:45,    155,    0.0,    7.0,   0.00,   0.00, 1015.4,   84.7, -999.0
16-03-2022, 00:05:55,    155,    0.0,    7.0,   0.00,   0.00, 1015.4,   84.6, -999.0
16-03-2022, 00:06:05,    155,    0.1,    7.0,   0.00,   0.00, 1015.5,   84.8, -999.0
16-03-2022, 00:06:15,    155,    0.5,    7.1,   0.00,   0.00, 1015.6,   85.0, -999.0
16-03-2022, 00:06:25,    163,    0.4,    7.0,   0.00,   0.00, 1015.6,   85.1, -999.0
16-03-2022, 00:06:35,    163,    0.0,    7.0,   0.00,   0.00, 1015.4,   84.7, -999.0
16-03-2022, 00:06:44,    163,    0.0,    7.0,   0.00,   0.00, 1015.5,   84.6, -999.0
16-03-2022, 00:06:55,    163,    0.0,    6.9,   0.00,   0.00, 1015.5,   84.7, -999.0
16-03-2022, 00:07:04,    162,    0.4,    7.0,   0.00,   0.00, 1015.6,   84.9, -999.0
16-03-2022, 00:07:14,    178,    1.1,    7.0,   0.00,   0.00, 1015.6,   85.0, -999.0
16-03-2022, 00:07:25,    186,    1.7,    7.1,   0.00,   0.00, 1015.6,   85.1, -999.0
16-03-2022, 00:07:34,    133,    1.5,    7.0,   0.00,   0.00, 1015.6,   85.0, -999.0
16-03-2022, 00:07:44,    133,    0.4,    7.0,   0.00,   0.00, 1015.6,   84.9, -999.0
16-03-2022, 00:07:54,    134,    0.9,    7.1,   0.00,   0.00, 1015.6,   85.2, -999.0
16-03-2022, 00:08:04,    134,    0.3,    7.1,   0.00,   0.00, 1015.6,   85.1, -999.0
16-03-2022, 00:08:14,    134,    0.0,    7.0,   0.00,   0.00, 1015.5,   84.7, -999.0
16-03-2022, 00:08:24,    134,    0.0,    7.0,   0.00,   0.00, 1015.5,   84.9, -999.0
16-03-2022, 00:08:34,    134,    0.0,    7.0,   0.00,   0.00, 1015.4,   84.8, -999.0
16-03-2022, 00:08:44,    135,    0.2,    7.0,   0.00,   0.00, 1015.6,   84.9, -999.0
16-03-2022, 00:08:54,    134,    0.9,    7.1,   0.00,   0.00, 1015.6,   85.1, -999.0
16-03-2022, 00:09:04,    134,    0.1,    7.0,   0.00,   0.00, 1015.5,   84.7, -999.0
16-03-2022, 00:09:14,    134,    0.0,    7.0,   0.00,   0.00, 1015.5,   84.8, -999.0
16-03-2022, 00:09:24,    134,    0.0,    7.0,   0.00,   0.00, 1015.4,   84.6, -999.0
16-03-2022, 00:09:34,    134,    0.1,    6.9,   0.00,   0.00, 1015.5,   84.8, -999.0
16-03-2022, 00:09:43,    134,    0.6,    7.0,   0.00,   0.00, 1015.6,   84.9, -999.0
16-03-2022, 00:09:54,    134,    0.8,    7.0,   0.00,   0.00, 1015.6,   85.0, -999.0
16-03-2022, 00:10:04,    135,    0.1,    7.0,   0.00,   0.00, 1015.5,   84.7, -999.0
16-03-2022, 00:10:13,    134,    0.3,    7.0,   0.00,   0.00, 1015.5,   84.8, -999.0
16-03-2022, 00:10:23,    134,    0.5,    6.9,   0.00,   0.00, 1015.6,   84.9, -999.0
16-03-2022, 00:10:34,    134,    0.0,    7.0,   0.00,   0.00, 1015.5,   84.6, -999.0
16-03-2022, 00:10:43,    134,    0.0,    6.9,   0.00,   0.00, 1015.5,   84.7, -999.0
16-03-2022, 00:10:53,    134,    0.0,    7.0,   0.00,   0.00, 1015.5,   84.8, -999.0
16-03-2022, 00:11:03,    134,    0.0,    7.0,   0.00,   0.00, 1015.5,   84.8, -999.0
16-03-2022, 00:11:13,    134,    0.0,    7.0,   0.00,   0.00, 1015.5,   84.9, -999.0
16-03-2022, 00:11:23,    155,    0.0,    7.0,   0.00,   0.00, 1015.5,   84.8, -999.0
16-03-2022, 00:11:33,    161,    0.8,    7.0,   0.00,   0.00, 1015.6,   85.1, -999.0
16-03-2022, 00:11:43,    157,    1.6,    7.0,   0.00,   0.00, 1015.6,   85.0, -999.0
16-03-2022, 00:11:53,    155,    1.9,    7.0,   0.00,   0.00, 1015.6,   84.9, -999.0
16-03-2022, 00:12:03,    147,    1.4,    7.0,   0.00,   0.00, 1015.6,   84.7, -999.0
16-03-2022, 00:12:13,    147,    1.1,    7.0,   0.00,   0.00, 1015.6,   84.7, -999.0
16-03-2022, 00:12:23,    161,    0.3,    6.9,   0.00,   0.00, 1015.6,   84.7, -999.0
16-03-2022, 00:12:33,    161,    0.0,    6.9,   0.00,   0.00, 1015.5,   84.5, -999.0
16-03-2022, 00:12:43,    160,    0.2,    6.9,   0.00,   0.00, 1015.6,   84.7, -999.0
16-03-2022, 00:12:52,    164,    0.0,    6.8,   0.00,   0.00, 1015.5,   84.4, -999.0
16-03-2022, 00:13:03,    161,    0.0,    6.8,   0.00,   0.00, 1015.5,   84.6, -999.0
16-03-2022, 00:13:13,    161,    0.2,    6.9,   0.00,   0.00, 1015.6,   84.8, -999.0
16-03-2022, 00:13:22,    160,    0.2,    6.9,   0.00,   0.00, 1015.6,   84.9, -999.0
16-03-2022, 00:13:32,    160,    0.0,    6.8,   0.00,   0.00, 1015.5,   84.6, -999.0
16-03-2022, 00:13:43,    161,    0.2,    6.8,   0.00,   0.00, 1015.6,   84.9, -999.0
16-03-2022, 00:13:52,    160,    0.1,    6.8,   0.00,   0.00, 1015.5,   84.8, -999.0
16-03-2022, 00:14:02,    160,    0.0,    6.8,   0.00,   0.00, 1015.5,   84.7, -999.0
16-03-2022, 00:14:13,    164,    0.2,    6.8,   0.00,   0.00, 1015.6,   84.9, -999.0
16-03-2022, 00:14:22,    172,    0.9,    6.8,   0.00,   0.00, 1015.6,   85.2, -999.0
16-03-2022, 00:14:32,    172,    0.5,    6.9,   0.00,   0.00, 1015.6,   85.1, -999.0
16-03-2022, 00:14:42,    173,    0.4,    6.8,   0.00,   0.00, 1015.6,   85.1, -999.0
16-03-2022, 00:14:52,    173,    0.2,    6.8,   0.00,   0.00, 1015.5,   85.0, -999.0
16-03-2022, 00:15:02,    173,    0.0,    6.8,   0.00,   0.00, 1015.5,   84.9, -999.0
16-03-2022, 00:15:12,    173,    0.0,    6.8,   0.00,   0.00, 1015.5,   84.9, -999.0
16-03-2022, 00:15:22,    173,    0.0,    6.8,   0.00,   0.00, 1015.5,   84.9, -999.0
16-03-2022, 00:15:32,    173,    0.0,    6.8,   0.00,   0.00, 1015.5,   84.9, -999.0
16-03-2022, 00:15:42,    172,    0.0,    6.8,   0.00,   0.00, 1015.5,   84.8, -999.0
16-03-2022, 00:15:52,    172,    0.0,    6.8,   0.00,   0.00, 1015.5,   85.0, -999.0
16-03-2022, 00:16:01,    172,    0.0,    6.9,   0.00,   0.00, 1015.5,   85.0, -999.0
16-03-2022, 00:16:12,    172,    0.0,    6.8,   0.00,   0.00, 1015.5,   85.0, -999.0
16-03-2022, 00:16:22,    172,    0.0,    6.8,   0.00,   0.00, 1015.5,   84.9, -999.0
16-03-2022, 00:16:31,    173,    0.0,    6.9,   0.00,   0.00, 1015.5,   85.0, -999.0
16-03-2022, 00:16:42,    172,    0.0,    6.9,   0.00,   0.00, 1015.5,   84.9, -999.0
16-03-2022, 00:16:52,    173,    0.0,    6.8,   0.00,   0.00, 1015.5,   85.0, -999.0
16-03-2022, 00:17:01,    172,    0.1,    6.9,   0.00,   0.00, 1015.6,   85.2, -999.0
16-03-2022, 00:17:11,    172,    0.0,    6.8,   0.00,   0.00, 1015.5,   85.0, -999.0
16-03-2022, 00:17:21,    172,    0.0,    6.8,   0.00,   0.00, 1015.5,   84.9, -999.0
16-03-2022, 00:17:31,    172,    0.0,    6.8,   0.00,   0.00, 1015.5,   84.9, -999.0
16-03-2022, 00:17:41,    172,    0.0,    6.8,   0.00,   0.00, 1015.5,   84.9, -999.0
16-03-2022, 00:17:51,    172,    0.0,    6.8,   0.00,   0.00, 1015.5,   85.0, -999.0
16-03-2022, 00:18:01,    172,    0.0,    6.8,   0.00,   0.00, 1015.5,   85.0, -999.0
16-03-2022, 00:18:11,    172,    0.0,    6.8,   0.00,   0.00, 1015.5,   85.1, -999.0
16-03-2022, 00:18:21,    172,    0.0,    6.8,   0.00,   0.00, 1015.5,   85.0, -999.0
16-03-2022, 00:18:31,    172,    0.0,    6.8,   0.00,   0.00, 1015.5,   85.1, -999.0
16-03-2022, 00:18:41,    172,    0.0,    6.8,   0.00,   0.00, 1015.5,   85.1, -999.0
16-03-2022, 00:18:51,    172,    0.0,    6.8,   0.00,   0.00, 1015.5,   85.0, -999.0
16-03-2022, 00:19:01,    172,    0.0,    6.8,   0.00,   0.00, 1015.5,   85.1, -999.0
16-03-2022, 00:19:11,    213,    0.3,    6.8,   0.00,   0.00, 1015.5,   85.2, -999.0
16-03-2022, 00:19:21,    212,    0.0,    6.8,   0.00,   0.00, 1015.5,   85.3, -999.0
16-03-2022, 00:19:31,    205,    0.0,    6.8,   0.00,   0.00, 1015.5,   85.0, -999.0
16-03-2022, 00:19:40,    205,    0.0,    6.8,   0.00,   0.00, 1015.5,   84.9, -999.0
16-03-2022, 00:19:51,    205,    0.0,    6.8,   0.00,   0.00, 1015.5,   85.0, -999.0
16-03-2022, 00:20:01,    205,    0.0,    6.8,   0.00,   0.00, 1015.5,   85.1, -999.0
16-03-2022, 00:20:10,    204,    0.0,    6.8,   0.00,   0.00, 1015.5,   85.0, -999.0
16-03-2022, 00:20:21,    204,    0.0,    6.8,   0.00,   0.00, 1015.5,   85.1, -999.0
16-03-2022, 00:20:30,    205,    0.0,    6.8,   0.00,   0.00, 1015.5,   85.2, -999.0
16-03-2022, 00:20:40,    205,    0.0,    6.8,   0.00,   0.00, 1015.5,   85.3, -999.0
16-03-2022, 00:20:50,    205,    0.0,    6.9,   0.00,   0.00, 1015.5,   85.4, -999.0
16-03-2022, 00:21:00,    205,    0.0,    6.8,   0.00,   0.00, 1015.5,   85.3, -999.0
16-03-2022, 00:21:10,    204,    0.0,    6.8,   0.00,   0.00, 1015.5,   85.3, -999.0
16-03-2022, 00:21:20,    192,    0.1,    6.8,   0.00,   0.00, 1015.6,   85.5, -999.0
16-03-2022, 00:21:30,    192,    0.3,    6.9,   0.00,   0.00, 1015.6,   85.7, -999.0
16-03-2022, 00:21:40,    192,    0.0,    6.8,   0.00,   0.00, 1015.5,   85.2, -999.0
16-03-2022, 00:21:50,    191,    0.0,    6.8,   0.00,   0.00, 1015.5,   85.2, -999.0
16-03-2022, 00:22:00,    192,    0.0,    6.7,   0.00,   0.00, 1015.5,   85.3, -999.0
16-03-2022, 00:22:10,    192,    0.0,    6.8,   0.00,   0.00, 1015.5,   85.3, -999.0
16-03-2022, 00:22:20,    192,    0.0,    6.8,   0.00,   0.00, 1015.5,   85.2, -999.0
16-03-2022, 00:22:30,    191,    0.0,    6.9,   0.00,   0.00, 1015.5,   85.2, -999.0
16-03-2022, 00:22:40,    191,    0.0,    6.8,   0.00,   0.00, 1015.5,   85.2, -999.0
16-03-2022, 00:22:50,    191,    0.0,    6.8,   0.00,   0.00, 1015.5,   85.3, -999.0
16-03-2022, 00:23:00,    191,    0.0,    6.7,   0.00,   0.00, 1015.5,   85.2, -999.0
16-03-2022, 00:23:09,    190,    0.0,    6.8,   0.00,   0.00, 1015.5,   85.2, -999.0
16-03-2022, 00:23:19,    191,    0.1,    6.8,   0.00,   0.00, 1015.6,   85.4, -999.0
16-03-2022, 00:23:30,    191,    0.0,    6.8,   0.00,   0.00, 1015.5,   85.2, -999.0
16-03-2022, 00:23:39,    191,    0.0,    6.8,   0.00,   0.00, 1015.5,   85.3, -999.0
16-03-2022, 00:23:49,    191,    0.0,    6.8,   0.00,   0.00, 1015.5,   85.3, -999.0
16-03-2022, 00:23:59,    190,    0.0,    6.8,   0.00,   0.00, 1015.5,   85.3, -999.0
16-03-2022, 00:24:09,    191,    0.0,    6.8,   0.00,   0.00, 1015.5,   85.2, -999.0
16-03-2022, 00:24:19,    191,    0.0,    6.8,   0.00,   0.00, 1015.5,   85.3, -999.0
16-03-2022, 00:24:29,    191,    0.0,    6.8,   0.00,   0.00, 1015.5,   85.3, -999.0
16-03-2022, 00:24:39,    191,    0.0,    6.8,   0.00,   0.00, 1015.5,   85.3, -999.0
16-03-2022, 00:24:49,    191,    0.0,    6.7,   0.00,   0.00, 1015.5,   85.3, -999.0
16-03-2022, 00:24:59,    191,    0.0,    6.7,   0.00,   0.00, 1015.5,   85.2, -999.0
16-03-2022, 00:25:09,    191,    0.0,    6.7,   0.00,   0.00, 1015.5,   85.3, -999.0
16-03-2022, 00:25:19,    191,    0.0,    6.8,   0.00,   0.00, 1015.5,   85.3, -999.0
16-03-2022, 00:25:29,    191,    0.0,    6.8,   0.00,   0.00, 1015.5,   85.2, -999.0
16-03-2022, 00:25:39,    190,    0.0,    6.8,   0.00,   0.00, 1015.5,   85.3, -999.0
16-03-2022, 00:25:49,    191,    0.0,    6.8,   0.00,   0.00, 1015.5,   85.2, -999.0
16-03-2022, 00:25:59,    191,    0.0,    6.7,   0.00,   0.00, 1015.5,   85.3, -999.0
16-03-2022, 00:26:09,    191,    0.0,    6.7,   0.00,   0.00, 1015.5,   85.3, -999.0
16-03-2022, 00:26:18,    190,    0.0,    6.8,   0.00,   0.00, 1015.5,   85.3, -999.0
16-03-2022, 00:26:28,    190,    0.0,    6.7,   0.00,   0.00, 1015.5,   85.2, -999.0
16-03-2022, 00:26:39,    191,    0.0,    6.6,   0.00,   0.00, 1015.5,   85.3, -999.0
16-03-2022, 00:26:48,    191,    0.0,    6.7,   0.00,   0.00, 1015.5,   85.2, -999.0
16-03-2022, 00:26:58,    191,    0.0,    6.7,   0.00,   0.00, 1015.5,   85.3, -999.0
16-03-2022, 00:27:09,    191,    0.0,    6.8,   0.00,   0.00, 1015.5,   85.4, -999.0
16-03-2022, 00:27:18,    191,    0.0,    6.8,   0.00,   0.00, 1015.5,   85.6, -999.0
16-03-2022, 00:27:28,    190,    0.0,    6.9,   0.00,   0.00, 1015.5,   85.6, -999.0
16-03-2022, 00:27:38,    191,    0.0,    6.8,   0.00,   0.00, 1015.5,   85.6, -999.0
16-03-2022, 00:27:48,    191,    0.0,    6.8,   0.00,   0.00, 1015.5,   85.5, -999.0
16-03-2022, 00:27:58,    191,    0.0,    6.8,   0.00,   0.00, 1015.5,   85.4, -999.0
16-03-2022, 00:28:08,    190,    0.0,    6.8,   0.00,   0.00, 1015.5,   85.4, -999.0
16-03-2022, 00:28:58,    190,    0.0,    6.6,   0.00,   0.00, 1015.5,   85.5, -999.0
16-03-2022, 00:29:08,    190,    0.0,    6.8,   0.00,   0.00, 1015.5,   85.4, -999.0
16-03-2022, 00:29:18,    190,    0.0,    6.8,   0.00,   0.00, 1015.5,   85.4, -999.0
16-03-2022, 00:29:27,    190,    0.0,    6.8,   0.00,   0.00, 1015.5,   85.4, -999.0
16-03-2022, 00:29:38,    190,    0.0,    6.7,   0.00,   0.00, 1015.5,   85.3, -999.0
16-03-2022, 00:29:48,    191,    0.0,    6.8,   0.00,   0.00, 1015.5,   85.3, -999.0
16-03-2022, 00:29:57,    191,    0.0,    6.8,   0.00,   0.00, 1015.5,   85.3, -999.0
16-03-2022, 00:30:07,    191,    0.0,    6.7,   0.00,   0.00, 1015.5,   85.2, -999.0
16-03-2022, 00:30:20,    190,    0.0,    6.7,   0.00,   0.00, 1015.5,   85.3, -999.0
16-03-2022, 00:30:27,    190,    0.0,    6.7,   0.00,   0.00, 1015.5,   85.2, -999.0
16-03-2022, 00:30:37,    190,    0.0,    6.7,   0.00,   0.00, 1015.5,   85.3, -999.0
16-03-2022, 00:30:47,    190,    0.0,    6.7,   0.00,   0.00, 1015.5,   85.2, -999.0
16-03-2022, 00:30:57,    190,    0.0,    6.7,   0.00,   0.00, 1015.5,   85.3, -999.0
16-03-2022, 00:31:07,    190,    0.0,    6.7,   0.00,   0.00, 1015.5,   85.3, -999.0
16-03-2022, 00:31:17,    191,    0.0,    6.7,   0.00,   0.00, 1015.5,   85.3, -999.0
16-03-2022, 00:31:27,    191,    0.0,    6.7,   0.00,   0.00, 1015.5,   85.3, -999.0
16-03-2022, 00:31:37,    190,    0.0,    6.7,   0.00,   0.00, 1015.5,   85.4, -999.0
16-03-2022, 00:31:47,    191,    0.0,    6.6,   0.00,   0.00, 1015.5,   85.3, -999.0
16-03-2022, 00:31:57,    190,    0.0,    6.7,   0.00,   0.00, 1015.5,   85.2, -999.0
16-03-2022, 00:32:07,    190,    0.0,    6.7,   0.00,   0.00, 1015.5,   85.3, -999.0
16-03-2022, 00:32:17,    190,    0.0,    6.6,   0.00,   0.00, 1015.5,   85.3, -999.0
16-03-2022, 00:32:27,    190,    0.0,    6.5,   0.00,   0.00, 1015.5,   85.3, -999.0
16-03-2022, 00:32:36,    190,    0.0,    6.6,   0.00,   0.00, 1015.5,   85.3, -999.0
16-03-2022, 00:32:47,    190,    0.0,    6.6,   0.00,   0.00, 1015.5,   85.3, -999.0
16-03-2022, 00:32:57,    190,    0.0,    6.6,   0.00,   0.00, 1015.5,   85.2, -999.0
16-03-2022, 00:33:06,    190,    0.0,    6.6,   0.00,   0.00, 1015.5,   85.3, -999.0
16-03-2022, 00:33:17,    191,    0.0,    6.6,   0.00,   0.00, 1015.5,   85.4, -999.0
16-03-2022, 00:33:27,    191,    0.0,    6.6,   0.00,   0.00, 1015.5,   85.4, -999.0
16-03-2022, 00:33:36,    190,    0.0,    6.6,   0.00,   0.00, 1015.5,   85.4, -999.0
16-03-2022, 00:33:46,    190,    0.0,    6.6,   0.00,   0.00, 1015.5,   85.5, -999.0
16-03-2022, 00:33:56,    191,    0.0,    6.6,   0.00,   0.00, 1015.5,   85.5, -999.0
16-03-2022, 00:34:06,    191,    0.0,    6.6,   0.00,   0.00, 1015.6,   85.4, -999.0
16-03-2022, 00:34:16,    190,    0.0,    6.6,   0.00,   0.00, 1015.5,   85.4, -999.0
16-03-2022, 00:34:26,    190,    0.0,    6.6,   0.00,   0.00, 1015.5,   85.4, -999.0
16-03-2022, 00:34:36,    191,    0.0,    6.6,   0.00,   0.00, 1015.5,   85.4, -999.0
16-03-2022, 00:34:46,    190,    0.0,    6.6,   0.00,   0.00, 1015.5,   85.5, -999.0
16-03-2022, 00:34:56,    191,    0.0,    6.6,   0.00,   0.00, 1015.5,   85.4, -999.0
16-03-2022, 00:35:06,    190,    0.0,    6.5,   0.00,   0.00, 1015.5,   85.4, -999.0
16-03-2022, 00:35:16,    190,    0.0,    6.6,   0.00,   0.00, 1015.6,   85.4, -999.0
16-03-2022, 00:35:26,    190,    0.0,    6.6,   0.00,   0.00, 1015.5,   85.5, -999.0
16-03-2022, 00:35:36,    190,    0.0,    6.6,   0.00,   0.00, 1015.5,   85.6, -999.0
16-03-2022, 00:35:46,    190,    0.0,    6.6,   0.00,   0.00, 1015.5,   85.6, -999.0
16-03-2022, 00:35:56,    191,    0.0,    6.6,   0.00,   0.00, 1015.5,   85.6, -999.0
16-03-2022, 00:36:06,    190,    0.0,    6.6,   0.00,   0.00, 1015.5,   85.6, -999.0
16-03-2022, 00:36:15,    190,    0.0,    6.5,   0.00,   0.00, 1015.5,   85.7, -999.0
16-03-2022, 00:36:26,    190,    0.0,    6.5,   0.00,   0.00, 1015.5,   85.6, -999.0
16-03-2022, 00:36:36,    190,    0.0,    6.5,   0.00,   0.00, 1015.5,   85.5, -999.0
16-03-2022, 00:36:45,    190,    0.0,    6.5,   0.00,   0.00, 1015.5,   85.7, -999.0
16-03-2022, 00:36:55,    190,    0.0,    6.5,   0.00,   0.00, 1015.5,   85.6, -999.0
16-03-2022, 00:37:05,    190,    0.0,    6.5,   0.00,   0.00, 1015.5,   85.6, -999.0
16-03-2022, 00:37:15,    191,    0.0,    6.5,   0.00,   0.00, 1015.5,   85.6, -999.0
16-03-2022, 00:37:25,    190,    0.0,    6.5,   0.00,   0.00, 1015.5,   85.6, -999.0
16-03-2022, 00:37:35,    190,    0.0,    6.5,   0.00,   0.00, 1015.5,   85.7, -999.0
16-03-2022, 00:37:45,    190,    0.0,    6.5,   0.00,   0.00, 1015.5,   85.6, -999.0
16-03-2022, 00:37:55,    190,    0.0,    6.5,   0.00,   0.00, 1015.5,   85.6, -999.0
16-03-2022, 00:38:05,    190,    0.0,    6.5,   0.00,   0.00, 1015.5,   85.8, -999.0
16-03-2022, 00:38:15,    190,    0.0,    6.6,   0.00,   0.00, 1015.5,   85.9, -999.0
16-03-2022, 00:38:25,    190,    0.0,    6.5,   0.00,   0.00, 1015.5,   85.8, -999.0
16-03-2022, 00:38:35,    191,    0.0,    6.6,   0.00,   0.00, 1015.5,   85.9, -999.0
16-03-2022, 00:38:45,    190,    0.0,    6.6,   0.00,   0.00, 1015.5,   86.0, -999.0
16-03-2022, 00:38:55,    190,    0.0,    6.6,   0.00,   0.00, 1015.5,   86.0, -999.0
16-03-2022, 00:39:05,    190,    0.0,    6.6,   0.00,   0.00, 1015.5,   85.9, -999.0
16-03-2022, 00:39:15,    191,    0.0,    6.6,   0.00,   0.00, 1015.5,   86.0, -999.0
16-03-2022, 00:39:24,    190,    0.0,    6.7,   0.00,   0.00, 1015.5,   86.2, -999.0
16-03-2022, 00:39:35,    190,    0.0,    6.8,   0.00,   0.00, 1015.5,   86.2, -999.0
16-03-2022, 00:39:45,    190,    0.0,    6.7,   0.00,   0.00, 1015.5,   86.3, -999.0
16-03-2022, 00:39:54,    190,    0.0,    6.8,   0.00,   0.00, 1015.5,   86.3, -999.0
16-03-2022, 00:40:04,    190,    0.0,    6.7,   0.00,   0.00, 1015.5,   86.3, -999.0
16-03-2022, 00:40:14,    191,    0.0,    6.8,   0.00,   0.00, 1015.5,   86.3, -999.0
16-03-2022, 00:40:24,    190,    0.0,    6.7,   0.00,   0.00, 1015.5,   86.3, -999.0
16-03-2022, 00:40:34,    190,    0.0,    6.8,   0.00,   0.00, 1015.5,   86.4, -999.0
16-03-2022, 00:40:44,    191,    0.0,    6.8,   0.00,   0.00, 1015.5,   86.3, -999.0
16-03-2022, 00:40:54,    190,    0.0,    6.7,   0.00,   0.00, 1015.5,   86.2, -999.0
16-03-2022, 00:41:05,    190,    0.0,    6.7,   0.00,   0.00, 1015.5,   86.2, -999.0
16-03-2022, 00:41:14,    191,    0.0,    6.7,   0.00,   0.00, 1015.5,   85.9, -999.0
16-03-2022, 00:41:24,    190,    0.0,    6.7,   0.00,   0.00, 1015.5,   86.0, -999.0
16-03-2022, 00:41:34,    190,    0.0,    6.6,   0.00,   0.00, 1015.5,   86.0, -999.0
16-03-2022, 00:41:44,    190,    0.0,    6.6,   0.00,   0.00, 1015.5,   86.0, -999.0
16-03-2022, 00:41:54,    190,    0.0,    6.6,   0.00,   0.00, 1015.5,   86.0, -999.0
16-03-2022, 00:42:04,    190,    0.0,    6.6,   0.00,   0.00, 1015.5,   86.0, -999.0
16-03-2022, 00:42:14,    190,    0.0,    6.6,   0.00,   0.00, 1015.5,   86.1, -999.0
16-03-2022, 00:42:24,    190,    0.0,    6.5,   0.00,   0.00, 1015.5,   86.0, -999.0
16-03-2022, 00:42:33,    190,    0.0,    6.6,   0.00,   0.00, 1015.5,   85.9, -999.0
16-03-2022, 00:42:44,    190,    0.0,    6.6,   0.00,   0.00, 1015.5,   86.0, -999.0
16-03-2022, 00:42:54,    190,    0.0,    6.5,   0.00,   0.00, 1015.5,   86.0, -999.0
16-03-2022, 00:43:03,    190,    0.0,    6.5,   0.00,   0.00, 1015.5,   86.0, -999.0
16-03-2022, 00:43:14,    190,    0.0,    6.5,   0.00,   0.00, 1015.5,   85.9, -999.0
16-03-2022, 00:43:23,    190,    0.0,    6.6,   0.00,   0.00, 1015.5,   86.0, -999.0
16-03-2022, 00:43:33,    190,    0.0,    6.6,   0.00,   0.00, 1015.5,   86.1, -999.0
16-03-2022, 00:43:43,    190,    0.0,    6.6,   0.00,   0.00, 1015.5,   86.0, -999.0
16-03-2022, 00:43:53,    190,    0.0,    6.6,   0.00,   0.00, 1015.5,   86.1, -999.0
16-03-2022, 00:44:03,    190,    0.0,    6.5,   0.00,   0.00, 1015.5,   86.0, -999.0
16-03-2022, 00:44:13,    190,    0.0,    6.5,   0.00,   0.00, 1015.5,   85.9, -999.0
16-03-2022, 00:44:23,    190,    0.0,    6.6,   0.00,   0.00, 1015.5,   86.0, -999.0
16-03-2022, 00:44:33,    190,    0.0,    6.5,   0.00,   0.00, 1015.5,   86.0, -999.0
16-03-2022, 00:44:43,    191,    0.0,    6.6,   0.00,   0.00, 1015.5,   86.2, -999.0
16-03-2022, 00:44:53,    190,    0.0,    6.5,   0.00,   0.00, 1015.5,   86.1, -999.0
16-03-2022, 00:45:03,    191,    0.0,    6.5,   0.00,   0.00, 1015.5,   86.2, -999.0
16-03-2022, 00:45:13,    190,    0.0,    6.6,   0.00,   0.00, 1015.5,   86.2, -999.0
16-03-2022, 00:45:23,    190,    0.0,    6.6,   0.00,   0.00, 1015.5,   86.2, -999.0
16-03-2022, 00:45:33,    190,    0.0,    6.6,   0.00,   0.00, 1015.5,   86.3, -999.0
16-03-2022, 00:45:43,    190,    0.0,    6.7,   0.00,   0.00, 1015.5,   86.2, -999.0
16-03-2022, 00:45:53,    190,    0.0,    6.6,   0.00,   0.00, 1015.5,   86.3, -999.0
16-03-2022, 00:46:03,    190,    0.0,    6.6,   0.00,   0.00, 1015.5,   86.2, -999.0
16-03-2022, 00:46:12,    190,    0.0,    6.6,   0.00,   0.00, 1015.5,   86.2, -999.0
16-03-2022, 00:46:23,    190,    0.0,    6.5,   0.00,   0.00, 1015.5,   86.2, -999.0
16-03-2022, 00:46:32,    190,    0.0,    6.5,   0.00,   0.00, 1015.5,   86.1, -999.0
16-03-2022, 00:46:42,    190,    0.0,    6.5,   0.00,   0.00, 1015.5,   86.2, -999.0
16-03-2022, 00:46:52,    190,    0.0,    6.5,   0.00,   0.00, 1015.5,   86.3, -999.0
16-03-2022, 00:47:02,    190,    0.0,    6.5,   0.00,   0.00, 1015.5,   86.2, -999.0
16-03-2022, 00:47:12,    190,    0.0,    6.6,   0.00,   0.00, 1015.5,   86.3, -999.0
16-03-2022, 00:47:22,    190,    0.0,    6.5,   0.00,   0.00, 1015.5,   86.2, -999.0